Overview Statistics Trail Chart Weather Telemetry Raw packets
 

This is the latest recevied weather packets stored in our database for station/object N1YZ. If no packets are shown the sender has not sent any weather packets the latest 10 day(s).

<< 16 17 18 19 20 21 22 >>
Time Temp. Humidity Pressure Rain* Wind** Luminosity Snow
1788540049 32.78° C 65% 1036.3 hPa 0 mm - 388 W/m² -
1788539777 32.78° C 65% 1036.2 hPa 0 mm - 282 W/m² -
1788539444 32.78° C 64% 1036.4 hPa 0 mm - 441 W/m² -
1788539139 32.78° C 66% 1036.7 hPa 0 mm - 110 W/m² -
1788538834 32.78° C 65% 1036.7 hPa 0 mm - 132 W/m² -
1788538529 32.78° C 64% 1036.6 hPa 0 mm - 152 W/m² -
1788538235 32.78° C 63% 1036.7 hPa 0 mm - 158 W/m² -
1788537919 32.78° C 63% 1036.7 hPa 0 mm - 106 W/m² -
1788537615 32.22° C 64% 1036.9 hPa 0 mm - 108 W/m² -
1788537309 32.22° C 65% 1036.8 hPa 0 mm - 131 W/m² -
1788537009 32.22° C 66% 1036.7 hPa 0 mm - 94 W/m² -
1788536703 31.67° C 66% 1036.7 hPa 0 mm - 62 W/m² -
1788536397 31.67° C 68% 1036.6 hPa 0 mm - 121 W/m² -
1788536092 31.67° C 68% 1036.8 hPa 0 mm - 241 W/m² -
1788535789 31.67° C 67% 1036.6 hPa 0 mm - 91 W/m² -
1788535484 31.67° C 66% 1036.6 hPa 0 mm - 262 W/m² -
1788535184 31.11° C 72% 1036.5 hPa 0 mm - 270 W/m² -
1788534879 30.56° C 72% 1036.8 hPa 0 mm - 258 W/m² -
1788534573 30.56° C 71% 1036.5 hPa 0 mm - 74 W/m² -
1788534268 30.56° C 73% 1036.5 hPa 0 mm - 119 W/m² -
1788533966 30.56° C 74% 1036.7 hPa 0 mm - 50 W/m² -
1788533663 30.56° C 73% 1036.7 hPa 0 mm - 69 W/m² -
1788533358 31.11° C 71% 1036.3 hPa 0 mm - 119 W/m² -
1788533054 31.11° C 69% 1036.6 hPa 0 mm - 100 W/m² -
1788532749 31.67° C 70% 1036.4 hPa 0 mm - 92 W/m² -

* Rain latest hour (hover to see other rain measurements)
** Current wind speed in m/s (hover to see current wind gust speed)